KAL418 RKSI-WSSS

Flight info

Callsign KAL418
Flight time 5h 58m
Altitude 34000
Route BOPTA2Y BOPTA Z51 BEDES Y711 MUGUS Y742 SALMI B576 APU B1 ANLOT W4 TNN A577 KABAM N892 MIGUG/K0920F340 N892 MELAS/N0497F340 N892 MABAL MABAL2B
Aircraft A359/H-SDE2E3GHIJ3J4J5LM1ORWXY/LB1D1

Departure

Time 2026-05-04 07:22
Airport Incheon International Airport (RKSI)

Arrival

Time 2026-05-04 13:20
Airport Singapore Changi Airport (WSSS)
Time Latitude Longitude Altitude Speed Heading
2026-05-04 07:10 37.46454 126.43461 37 ft 4 kts 220°
2026-05-04 07:12 37.46498 126.43467 37 ft 0 kts 176°
2026-05-04 07:13 37.46497 126.43468 37 ft 2 kts 176°
2026-05-04 07:14 37.46204 126.43652 39 ft 19 kts 198°
2026-05-04 07:14 37.46115 126.43535 39 ft 18 kts 235°
2026-05-04 07:15 37.46041 126.43405 39 ft 19 kts 233°
2026-05-04 07:15 37.45963 126.43269 39 ft 19 kts 234°
2026-05-04 07:15 37.45869 126.43236 39 ft 15 kts 143°
2026-05-04 07:15 37.45776 126.43317 38 ft 17 kts 145°
2026-05-04 07:16 37.45662 126.43418 39 ft 23 kts 144°
2026-05-04 07:16 37.45528 126.43538 39 ft 25 kts 144°
2026-05-04 07:16 37.45385 126.43663 39 ft 26 kts 145°
2026-05-04 07:16 37.45234 126.43797 39 ft 27 kts 144°
2026-05-04 07:17 37.45076 126.43937 39 ft 28 kts 145°
2026-05-04 07:17 37.44911 126.44083 39 ft 29 kts 144°
2026-05-04 07:17 37.44747 126.44230 39 ft 27 kts 144°
2026-05-04 07:17 37.44592 126.44369 39 ft 26 kts 144°
2026-05-04 07:18 37.44471 126.44384 39 ft 17 kts 234°
2026-05-04 07:18 37.44432 126.44311 39 ft 0 kts 235°
2026-05-04 07:20 37.44430 126.44307 39 ft 4 kts 235°
2026-05-04 07:20 37.44392 126.44238 39 ft 15 kts 236°
2026-05-04 07:20 37.44398 126.44126 39 ft 0 kts 320°
2026-05-04 07:22 37.48230 126.40538 1744 ft 185 kts 312°
2026-05-04 07:22 37.49092 126.39213 2173 ft 205 kts 306°
2026-05-04 07:23 37.49936 126.37713 2834 ft 214 kts 302°
2026-05-04 07:23 37.50444 126.35922 3499 ft 226 kts 281°
2026-05-04 07:23 37.50551 126.33868 4003 ft 243 kts 274°
2026-05-04 07:23 37.50571 126.31713 4701 ft 249 kts 274°
2026-05-04 07:24 37.50595 126.29514 5464 ft 253 kts 275°
2026-05-04 07:24 37.50632 126.27280 6227 ft 258 kts 276°
2026-05-04 07:24 37.50677 126.25006 7005 ft 262 kts 276°
2026-05-04 07:24 37.50725 126.22699 7825 ft 265 kts 275°
2026-05-04 07:25 37.50517 126.20361 8632 ft 276 kts 258°
2026-05-04 07:26 37.36931 126.18709 12435 ft 385 kts 128°
2026-05-04 07:27 37.35226 126.21326 13147 ft 390 kts 128°
2026-05-04 07:27 37.33484 126.23973 13860 ft 395 kts 129°
2026-05-04 07:27 37.31700 126.26622 14484 ft 400 kts 129°
2026-05-04 07:27 37.29872 126.29288 15101 ft 405 kts 130°
2026-05-04 07:28 37.28010 126.31973 15745 ft 409 kts 130°
2026-05-04 07:28 37.26148 126.34642 16380 ft 414 kts 130°
2026-05-04 07:28 37.24242 126.37366 17015 ft 418 kts 130°
2026-05-04 07:28 37.22312 126.40121 17651 ft 422 kts 130°
2026-05-04 07:29 37.20305 126.42836 18266 ft 427 kts 136°
2026-05-04 07:29 37.17855 126.44940 18829 ft 430 kts 155°
2026-05-04 07:29 37.15084 126.46383 19424 ft 433 kts 161°
2026-05-04 07:29 37.12249 126.47707 20024 ft 436 kts 162°
2026-05-04 07:30 37.09390 126.49036 20638 ft 440 kts 162°
2026-05-04 07:30 37.06508 126.50386 21251 ft 444 kts 162°
2026-05-04 07:30 37.03584 126.51680 21817 ft 447 kts 167°
2026-05-04 07:30 37.00582 126.52732 22410 ft 449 kts 169°
2026-05-04 07:31 36.97548 126.53727 23026 ft 453 kts 169°
2026-05-04 07:31 36.94487 126.54727 23620 ft 456 kts 169°
2026-05-04 07:33 36.73579 126.61596 27023 ft 476 kts 171°
2026-05-04 07:33 36.70369 126.62663 27479 ft 480 kts 171°
2026-05-04 07:33 36.67135 126.63749 27945 ft 483 kts 171°
2026-05-04 07:33 36.63889 126.64840 28458 ft 485 kts 171°
2026-05-04 07:34 36.60627 126.65937 28980 ft 486 kts 171°
2026-05-04 07:34 36.57360 126.67035 29474 ft 488 kts 171°
2026-05-04 07:34 36.54070 126.68138 29895 ft 491 kts 171°
2026-05-04 07:34 36.50764 126.69245 30280 ft 494 kts 172°
2026-05-04 07:35 36.47439 126.70358 30670 ft 496 kts 172°
2026-05-04 07:35 36.44106 126.71472 31024 ft 497 kts 172°
2026-05-04 07:35 36.40761 126.72592 31410 ft 498 kts 172°
2026-05-04 07:35 36.37416 126.73715 31826 ft 496 kts 172°
2026-05-04 07:36 36.34087 126.74838 32214 ft 497 kts 172°
2026-05-04 07:36 36.30752 126.75966 32586 ft 497 kts 173°
2026-05-04 07:38 36.07698 126.80509 34063 ft 461 kts 193°
2026-05-04 07:38 36.04503 126.80175 34068 ft 460 kts 193°
2026-05-04 07:38 35.98175 126.79435 34065 ft 460 kts 194°
2026-05-04 07:39 35.91829 126.78710 34071 ft 455 kts 194°
2026-05-04 07:39 35.85529 126.78029 34076 ft 454 kts 194°
2026-05-04 07:40 35.79244 126.77341 34080 ft 453 kts 194°
2026-05-04 07:40 35.72977 126.76662 34085 ft 450 kts 195°
2026-05-04 07:41 35.66753 126.75989 34076 ft 449 kts 195°
2026-05-04 07:41 35.60531 126.75315 34076 ft 449 kts 195°
2026-05-04 07:42 35.54352 126.74650 34098 ft 441 kts 193°
2026-05-04 07:42 35.48210 126.74005 34086 ft 444 kts 195°
2026-05-04 07:43 35.42044 126.73338 34085 ft 445 kts 195°
2026-05-04 07:43 35.35879 126.72677 34083 ft 442 kts 196°
2026-05-04 07:44 35.29789 126.72033 34089 ft 438 kts 196°
2026-05-04 07:44 35.23717 126.71380 34086 ft 438 kts 196°
2026-05-04 07:45 35.17653 126.70733 34073 ft 436 kts 196°
2026-05-04 07:45 35.11645 126.70101 34086 ft 432 kts 196°
2026-05-04 07:46 35.05672 126.69469 34086 ft 431 kts 197°
2026-05-04 07:46 34.99733 126.68831 34085 ft 431 kts 197°
2026-05-04 07:47 34.93756 126.68192 34089 ft 431 kts 197°
2026-05-04 07:49 34.69827 126.65667 34087 ft 433 kts 196°
2026-05-04 07:49 34.63820 126.65034 34091 ft 434 kts 196°
2026-05-04 07:50 34.57816 126.64404 34082 ft 433 kts 196°
2026-05-04 07:50 34.51802 126.63770 34094 ft 434 kts 196°
2026-05-04 07:51 34.45787 126.63141 34097 ft 434 kts 196°
2026-05-04 07:51 34.39764 126.62519 34069 ft 434 kts 196°
2026-05-04 07:52 34.33764 126.61895 34096 ft 432 kts 196°
2026-05-04 07:52 34.27779 126.61267 34101 ft 432 kts 196°
2026-05-04 07:54 34.03926 126.58776 34102 ft 430 kts 195°
2026-05-04 07:55 33.97967 126.58157 34100 ft 431 kts 195°
2026-05-04 07:55 33.91978 126.57533 34107 ft 433 kts 195°
2026-05-04 07:56 33.85989 126.56848 34110 ft 428 kts 198°
2026-05-04 07:56 33.80328 126.55084 34118 ft 416 kts 207°
2026-05-04 07:57 33.74856 126.52772 34123 ft 419 kts 208°
2026-05-04 07:57 33.69386 126.50362 34126 ft 420 kts 208°
2026-05-04 07:58 33.63911 126.47971 34127 ft 416 kts 208°
2026-05-04 07:58 33.58468 126.45611 34126 ft 418 kts 208°
2026-05-04 07:59 33.52980 126.43235 34129 ft 420 kts 208°
2026-05-04 07:59 33.47481 126.40864 34132 ft 420 kts 208°
2026-05-04 08:00 33.41976 126.38504 34094 ft 420 kts 208°
2026-05-04 08:02 33.19879 126.29012 34118 ft 424 kts 208°
2026-05-04 08:02 33.14322 126.26641 34117 ft 424 kts 208°
2026-05-04 08:03 33.08762 126.24265 34132 ft 424 kts 208°
2026-05-04 08:03 33.03217 126.21900 34121 ft 423 kts 208°
2026-05-04 08:04 32.97682 126.19546 34118 ft 422 kts 208°
2026-05-04 08:04 32.92156 126.17172 34116 ft 422 kts 208°
2026-05-04 08:05 32.86633 126.14794 34103 ft 422 kts 208°
2026-05-04 08:05 32.81086 126.12412 34119 ft 426 kts 208°
2026-05-04 08:06 32.75495 126.10018 34121 ft 427 kts 208°
2026-05-04 08:06 32.69901 126.07631 34124 ft 427 kts 208°
2026-05-04 08:08 32.47450 125.98076 34091 ft 430 kts 207°
2026-05-04 08:11 32.22009 125.87319 34129 ft 431 kts 207°
2026-05-04 08:11 32.13532 125.83748 34132 ft 431 kts 207°
2026-05-04 08:12 32.07882 125.81373 34119 ft 431 kts 207°
2026-05-04 08:12 32.02252 125.79012 34133 ft 428 kts 207°
2026-05-04 08:13 31.96639 125.76655 34128 ft 428 kts 207°
2026-05-04 08:13 31.91027 125.74290 34131 ft 430 kts 208°
2026-05-04 08:14 31.85388 125.71917 34135 ft 430 kts 207°
2026-05-04 08:16 31.62990 125.62547 34140 ft 427 kts 207°
2026-05-04 08:16 31.57398 125.60205 34140 ft 427 kts 207°
2026-05-04 08:17 31.51807 125.57869 34141 ft 427 kts 207°
2026-05-04 08:17 31.46213 125.55526 34145 ft 428 kts 207°
2026-05-04 08:19 31.23717 125.46119 34143 ft 430 kts 207°
2026-05-04 08:20 31.18083 125.43777 34143 ft 430 kts 207°
2026-05-04 08:20 31.12438 125.41431 34143 ft 430 kts 207°
2026-05-04 08:21 31.06799 125.39090 34140 ft 430 kts 207°
2026-05-04 08:21 31.01157 125.36749 34141 ft 430 kts 207°
2026-05-04 08:22 30.95554 125.34428 34140 ft 430 kts 207°
2026-05-04 08:24 30.72975 125.25103 34144 ft 431 kts 207°
2026-05-04 08:24 30.68279 125.23169 34109 ft 431 kts 207°
2026-05-04 08:25 30.62615 125.20839 34146 ft 431 kts 207°
2026-05-04 08:25 30.56957 125.18516 34146 ft 431 kts 207°
2026-05-04 08:27 30.34435 125.09296 34148 ft 426 kts 208°
2026-05-04 08:28 30.28845 125.07008 34146 ft 426 kts 208°
2026-05-04 08:28 30.23258 125.04728 34146 ft 425 kts 208°
2026-05-04 08:29 30.17685 125.02458 34133 ft 425 kts 208°
2026-05-04 08:31 29.95370 124.93343 34147 ft 425 kts 209°
2026-05-04 08:33 29.73150 124.83806 34146 ft 429 kts 209°
2026-05-04 08:35 29.50760 124.74310 34149 ft 429 kts 210°
2026-05-04 08:35 29.45160 124.71947 34150 ft 429 kts 210°
2026-05-04 08:37 29.25597 124.63686 34150 ft 428 kts 210°
2026-05-04 08:38 29.20010 124.61334 34141 ft 428 kts 210°
2026-05-04 08:38 29.14421 124.58986 34151 ft 428 kts 210°
2026-05-04 08:40 28.95039 124.50505 34154 ft 417 kts 218°
2026-05-04 08:40 28.92622 124.48803 34155 ft 412 kts 221°
2026-05-04 08:41 28.87905 124.45117 34160 ft 410 kts 223°
2026-05-04 08:41 28.83258 124.41350 34156 ft 410 kts 223°
2026-05-04 08:42 28.78609 124.37585 34150 ft 410 kts 223°
2026-05-04 08:42 28.73944 124.33835 34154 ft 410 kts 223°
2026-05-04 08:43 28.69276 124.30097 34154 ft 410 kts 223°
2026-05-04 08:43 28.64602 124.26362 34159 ft 410 kts 223°
2026-05-04 08:44 28.59933 124.22633 34150 ft 410 kts 223°
2026-05-04 08:46 28.41242 124.07741 34134 ft 410 kts 223°
2026-05-04 08:46 28.36566 124.04027 34157 ft 410 kts 223°
2026-05-04 08:47 28.31889 124.00315 34159 ft 410 kts 223°
2026-05-04 08:47 28.27229 123.96582 34156 ft 409 kts 224°
2026-05-04 08:48 28.22616 123.92800 34160 ft 409 kts 224°
2026-05-04 08:48 28.18001 123.89020 34155 ft 410 kts 224°
2026-05-04 08:49 28.13396 123.85269 34150 ft 411 kts 223°
2026-05-04 08:50 27.97124 123.72083 34158 ft 413 kts 223°
2026-05-04 08:51 27.92448 123.68305 34168 ft 413 kts 223°
2026-05-04 08:51 27.87787 123.64519 34158 ft 412 kts 223°
2026-05-04 08:52 27.83143 123.60731 34154 ft 412 kts 223°
2026-05-04 08:52 27.78493 123.56944 34154 ft 413 kts 223°
2026-05-04 08:54 27.59790 123.41791 34135 ft 414 kts 223°
2026-05-04 08:55 27.55085 123.37985 34154 ft 417 kts 223°
2026-05-04 08:55 27.50361 123.34172 34164 ft 418 kts 223°
2026-05-04 09:01 27.00368 122.94089 34153 ft 423 kts 222°
2026-05-04 09:01 26.95567 122.90269 34151 ft 423 kts 222°
2026-05-04 09:02 26.90767 122.86457 34149 ft 422 kts 222°
2026-05-04 09:02 26.85982 122.82661 34149 ft 421 kts 222°
2026-05-04 09:03 26.81199 122.78869 34148 ft 421 kts 222°
2026-05-04 09:03 26.76418 122.75083 34133 ft 421 kts 222°
2026-05-04 09:04 26.71612 122.71278 34151 ft 424 kts 222°
2026-05-04 09:04 26.66790 122.67474 34144 ft 424 kts 222°
2026-05-04 09:05 26.62002 122.63696 34146 ft 424 kts 222°
2026-05-04 09:05 26.57183 122.59891 34147 ft 423 kts 222°
2026-05-04 09:06 26.52371 122.56097 34146 ft 424 kts 221°
2026-05-04 09:08 26.33037 122.40899 34123 ft 426 kts 221°
2026-05-04 09:08 26.28172 122.37084 34141 ft 429 kts 221°
2026-05-04 09:09 26.23290 122.33261 34140 ft 428 kts 221°
2026-05-04 09:09 26.18421 122.29455 34135 ft 427 kts 221°
2026-05-04 09:10 26.13557 122.25655 34135 ft 427 kts 221°
2026-05-04 09:10 26.08665 122.21880 34136 ft 430 kts 220°
2026-05-04 09:11 26.04565 122.18748 34134 ft 431 kts 220°
2026-05-04 09:11 25.99626 122.14980 34130 ft 431 kts 220°
2026-05-04 09:12 25.94687 122.11209 34124 ft 431 kts 220°
2026-05-04 09:14 25.74897 121.96120 34123 ft 432 kts 220°
2026-05-04 09:14 25.69944 121.92345 34114 ft 432 kts 221°
2026-05-04 09:15 25.65012 121.88543 34125 ft 432 kts 220°
2026-05-04 09:15 25.60072 121.84741 34107 ft 432 kts 220°
2026-05-04 09:17 25.37869 121.67666 34104 ft 432 kts 220°
2026-05-04 09:18 25.32923 121.63879 34091 ft 432 kts 220°
2026-05-04 09:18 25.27977 121.60094 34080 ft 432 kts 220°
2026-05-04 09:19 25.23040 121.56316 34057 ft 430 kts 220°
2026-05-04 09:19 25.18095 121.52543 34074 ft 433 kts 220°
2026-05-04 09:20 25.13223 121.48672 34075 ft 431 kts 222°
2026-05-04 09:20 25.08454 121.44677 34076 ft 430 kts 223°
2026-05-04 09:21 25.03683 121.40691 34074 ft 431 kts 222°
2026-05-04 09:21 24.98885 121.36726 34071 ft 432 kts 222°
2026-05-04 09:22 24.94057 121.32754 34067 ft 434 kts 222°
2026-05-04 09:22 24.89250 121.28807 34065 ft 434 kts 222°
2026-05-04 09:23 24.84373 121.24806 34060 ft 434 kts 222°
2026-05-04 09:23 24.79563 121.20863 34061 ft 433 kts 222°
2026-05-04 09:25 24.60228 121.05049 34038 ft 434 kts 222°
2026-05-04 09:26 24.55384 121.01105 34034 ft 434 kts 222°
2026-05-04 09:26 24.50535 120.97143 34042 ft 435 kts 222°
2026-05-04 09:27 24.45672 120.93195 34030 ft 434 kts 221°
2026-05-04 09:27 24.40824 120.89252 34016 ft 433 kts 222°
2026-05-04 09:28 24.35986 120.85309 34026 ft 433 kts 222°
2026-05-04 09:28 24.31146 120.81373 34021 ft 434 kts 221°
2026-05-04 09:29 24.26281 120.77426 34026 ft 436 kts 222°
2026-05-04 09:29 24.21428 120.73432 34016 ft 436 kts 221°
2026-05-04 09:30 24.16540 120.69496 34017 ft 436 kts 221°
2026-05-04 09:30 24.11647 120.65571 34021 ft 436 kts 221°
2026-05-04 09:31 24.06752 120.61627 34016 ft 439 kts 221°
2026-05-04 09:31 24.01820 120.57644 34017 ft 441 kts 221°
2026-05-04 09:32 23.96882 120.53665 34008 ft 441 kts 221°
2026-05-04 09:34 23.77113 120.43671 34016 ft 460 kts 204°
2026-05-04 09:34 23.74068 120.42587 34015 ft 460 kts 204°
2026-05-04 09:34 23.67985 120.40406 34018 ft 460 kts 204°
2026-05-04 09:35 23.61956 120.38224 34010 ft 459 kts 205°
2026-05-04 09:35 23.55885 120.36015 34010 ft 462 kts 205°
2026-05-04 09:37 23.31414 120.27106 34008 ft 466 kts 204°
2026-05-04 09:38 23.25240 120.24864 34010 ft 468 kts 204°
2026-05-04 09:38 23.19056 120.22623 34002 ft 468 kts 204°
2026-05-04 09:39 23.12787 120.20618 33999 ft 474 kts 196°
2026-05-04 09:39 23.06257 120.19439 33992 ft 478 kts 194°
2026-05-04 09:40 22.99659 120.18418 33992 ft 479 kts 194°
2026-05-04 09:40 22.93048 120.17419 33991 ft 479 kts 194°
2026-05-04 09:42 22.66579 120.13346 33978 ft 482 kts 194°
2026-05-04 09:43 22.59945 120.12330 33977 ft 481 kts 194°
2026-05-04 09:43 22.53358 120.11322 33973 ft 481 kts 194°
2026-05-04 09:44 22.46715 120.10310 33991 ft 482 kts 194°
2026-05-04 09:46 22.20147 120.06249 33999 ft 482 kts 194°
2026-05-04 09:46 22.13509 120.05223 33998 ft 482 kts 194°
2026-05-04 09:47 22.06870 120.04202 34001 ft 482 kts 194°
2026-05-04 09:49 21.80271 120.00158 34002 ft 483 kts 194°
2026-05-04 09:51 21.56986 119.96622 34010 ft 483 kts 194°
2026-05-04 09:51 21.50334 119.95612 34007 ft 482 kts 194°
2026-05-04 09:52 21.43688 119.94603 33993 ft 482 kts 193°
2026-05-04 09:52 21.37085 119.93602 34001 ft 482 kts 193°
2026-05-04 09:53 21.30434 119.92596 34003 ft 482 kts 193°
2026-05-04 09:53 21.23789 119.91592 34001 ft 482 kts 193°
2026-05-04 09:54 21.17143 119.90588 33995 ft 482 kts 193°
2026-05-04 09:54 21.10492 119.89583 33993 ft 483 kts 193°
2026-05-04 09:55 21.03914 119.88269 33993 ft 477 kts 201°
2026-05-04 09:55 20.98006 119.85281 33984 ft 466 kts 218°
2026-05-04 09:56 20.93164 119.80767 33988 ft 460 kts 227°
2026-05-04 09:56 20.88671 119.75908 33985 ft 459 kts 229°
2026-05-04 09:57 20.84202 119.71001 33993 ft 461 kts 229°
2026-05-04 09:57 20.79702 119.66115 33990 ft 461 kts 228°
2026-05-04 09:58 20.75185 119.61249 33989 ft 461 kts 228°
2026-05-04 09:58 20.70691 119.56423 33987 ft 461 kts 228°
2026-05-04 10:00 20.52607 119.37031 33988 ft 461 kts 228°
2026-05-04 10:04 20.21676 119.04017 33973 ft 460 kts 227°
2026-05-04 10:04 20.17144 118.99197 33962 ft 461 kts 227°
2026-05-04 10:05 20.12597 118.94364 33976 ft 463 kts 227°
2026-05-04 10:05 20.08036 118.89521 33972 ft 463 kts 227°
2026-05-04 10:06 20.03474 118.84681 33971 ft 463 kts 227°
2026-05-04 10:06 19.98910 118.79844 33968 ft 463 kts 227°
2026-05-04 10:08 19.82887 118.62893 33966 ft 465 kts 227°
2026-05-04 10:08 19.78302 118.58053 33962 ft 464 kts 227°
2026-05-04 10:09 19.73722 118.53221 33967 ft 464 kts 227°
2026-05-04 10:09 19.69138 118.48388 33969 ft 464 kts 227°
2026-05-04 10:10 19.64556 118.43562 33962 ft 464 kts 227°
2026-05-04 10:10 19.60001 118.38770 33962 ft 464 kts 227°
2026-05-04 10:11 19.55416 118.33950 33957 ft 464 kts 227°
2026-05-04 10:11 19.50839 118.29142 33958 ft 463 kts 227°
2026-05-04 10:12 19.46263 118.24338 33961 ft 463 kts 227°
2026-05-04 10:12 19.41684 118.19536 33947 ft 463 kts 227°
2026-05-04 10:13 19.37075 118.14705 33960 ft 468 kts 227°
2026-05-04 10:13 19.32434 118.09848 33964 ft 469 kts 227°
2026-05-04 10:14 19.27789 118.04993 33964 ft 470 kts 227°
2026-05-04 10:16 19.09126 117.85508 33951 ft 471 kts 227°
2026-05-04 10:16 19.04462 117.80650 33950 ft 471 kts 227°
2026-05-04 10:17 18.99790 117.75795 33953 ft 471 kts 227°
2026-05-04 10:19 18.81138 117.56417 33948 ft 469 kts 226°
2026-05-04 10:19 18.76481 117.51590 33951 ft 469 kts 226°
2026-05-04 10:20 18.71822 117.46766 33953 ft 469 kts 226°
2026-05-04 10:20 18.67161 117.41943 33945 ft 469 kts 226°
2026-05-04 10:21 18.62501 117.37125 33946 ft 470 kts 226°
2026-05-04 10:21 18.57811 117.32280 33947 ft 472 kts 226°
2026-05-04 10:22 18.50798 117.25044 33946 ft 472 kts 226°
2026-05-04 10:23 18.46098 117.20199 33948 ft 472 kts 226°
2026-05-04 10:25 18.27302 117.00861 33942 ft 473 kts 226°
2026-05-04 10:25 18.22593 116.96027 33944 ft 473 kts 226°
2026-05-04 10:26 18.17883 116.91195 33946 ft 473 kts 226°
2026-05-04 10:26 18.13173 116.86365 33949 ft 473 kts 226°
2026-05-04 10:27 18.08498 116.81578 33940 ft 472 kts 226°
2026-05-04 10:27 18.03793 116.76762 33941 ft 472 kts 226°
2026-05-04 10:28 17.99087 116.71948 33944 ft 472 kts 226°
2026-05-04 10:28 17.94378 116.67137 33941 ft 472 kts 226°
2026-05-04 10:29 17.89670 116.62329 33942 ft 472 kts 226°
2026-05-04 10:29 17.84961 116.57525 33941 ft 472 kts 226°
2026-05-04 10:30 17.80248 116.52721 33940 ft 472 kts 226°
2026-05-04 10:30 17.75532 116.47921 33941 ft 472 kts 226°
2026-05-04 10:31 17.70817 116.43122 33943 ft 472 kts 226°
2026-05-04 10:32 17.54335 116.26370 33940 ft 473 kts 226°
2026-05-04 10:33 17.49597 116.21564 33937 ft 474 kts 226°
2026-05-04 10:33 17.44853 116.16756 33938 ft 475 kts 226°
2026-05-04 10:34 17.40109 116.11952 33940 ft 474 kts 226°
2026-05-04 10:34 17.35363 116.07148 33939 ft 474 kts 226°
2026-05-04 10:35 17.30615 116.02348 33938 ft 474 kts 226°
2026-05-04 10:35 17.25861 115.97544 33939 ft 476 kts 226°
2026-05-04 10:36 17.21098 115.92734 33938 ft 477 kts 225°
2026-05-04 10:36 17.16320 115.87914 33939 ft 478 kts 225°
2026-05-04 10:37 17.11537 115.83092 33938 ft 478 kts 225°
2026-05-04 10:37 17.06751 115.78270 33939 ft 478 kts 225°
2026-05-04 10:39 16.89998 115.61423 33938 ft 477 kts 226°
2026-05-04 10:40 16.85216 115.56622 33940 ft 477 kts 226°
2026-05-04 10:40 16.80433 115.51823 33939 ft 477 kts 226°
2026-05-04 10:41 16.75648 115.47025 33941 ft 477 kts 226°
2026-05-04 10:41 16.70862 115.42228 33939 ft 477 kts 225°
2026-05-04 10:42 16.66074 115.37435 33938 ft 477 kts 225°
2026-05-04 10:42 16.61313 115.32674 33936 ft 477 kts 225°
2026-05-04 10:43 16.56514 115.27877 33939 ft 478 kts 225°
2026-05-04 10:45 16.37270 115.08675 33936 ft 480 kts 225°
2026-05-04 10:45 16.32446 115.03870 33936 ft 480 kts 225°
2026-05-04 10:46 16.27623 114.99070 33935 ft 480 kts 225°
2026-05-04 10:46 16.22783 114.94257 33936 ft 482 kts 225°
2026-05-04 10:47 16.17940 114.89442 33934 ft 481 kts 225°
2026-05-04 10:47 16.13137 114.84672 33936 ft 480 kts 225°
2026-05-04 10:49 15.93826 114.65527 33933 ft 480 kts 225°
2026-05-04 10:50 15.88996 114.60747 33934 ft 479 kts 225°
2026-05-04 10:52 15.70499 114.42471 33935 ft 478 kts 225°
2026-05-04 10:52 15.65678 114.37716 33935 ft 478 kts 225°
2026-05-04 10:54 15.46349 114.18683 33936 ft 480 kts 225°
2026-05-04 10:56 15.26857 113.99767 33935 ft 483 kts 219°
2026-05-04 10:57 15.21467 113.95616 33933 ft 483 kts 217°
2026-05-04 10:57 15.16000 113.91562 33933 ft 483 kts 217°
2026-05-04 10:58 15.10521 113.87524 33933 ft 483 kts 217°
2026-05-04 10:58 15.05052 113.83483 33933 ft 483 kts 217°
2026-05-04 10:59 14.99585 113.79437 33929 ft 483 kts 217°
2026-05-04 10:59 14.94107 113.75383 33930 ft 484 kts 217°
2026-05-04 11:00 14.88622 113.71326 33930 ft 485 kts 217°
2026-05-04 11:02 14.66654 113.55108 33933 ft 487 kts 217°
2026-05-04 11:05 14.25100 113.24457 33925 ft 492 kts 217°
2026-05-04 11:06 14.19534 113.20355 33926 ft 492 kts 217°
2026-05-04 11:06 14.13968 113.16256 33928 ft 492 kts 217°
2026-05-04 11:10 13.75052 112.87698 33928 ft 493 kts 217°
2026-05-04 11:12 13.52642 112.71324 33927 ft 494 kts 218°
2026-05-04 11:12 13.47046 112.67239 33927 ft 494 kts 217°
2026-05-04 11:13 13.41439 112.63150 33925 ft 494 kts 217°
2026-05-04 11:13 13.35829 112.59062 33925 ft 495 kts 217°
2026-05-04 11:14 13.30216 112.54973 33925 ft 495 kts 217°
2026-05-04 11:16 13.07815 112.38681 33925 ft 493 kts 217°
2026-05-04 11:16 13.02214 112.34613 33922 ft 493 kts 217°
2026-05-04 11:17 12.96615 112.30549 33922 ft 493 kts 217°
2026-05-04 11:19 12.74173 112.14281 33922 ft 496 kts 217°
2026-05-04 11:19 12.68550 112.10211 33922 ft 494 kts 217°
2026-05-04 11:20 12.62943 112.06155 33919 ft 493 kts 217°
2026-05-04 11:20 12.57340 112.02104 33919 ft 493 kts 217°
2026-05-04 11:22 12.34811 111.85839 33917 ft 496 kts 217°
2026-05-04 11:23 12.29181 111.81750 33914 ft 496 kts 217°
2026-05-04 11:25 12.09531 111.67464 33916 ft 496 kts 217°
2026-05-04 11:25 12.03898 111.63379 33917 ft 496 kts 216°
2026-05-04 11:27 11.78518 111.45001 33911 ft 498 kts 217°
2026-05-04 11:28 11.72863 111.40911 33911 ft 498 kts 216°
2026-05-04 11:28 11.67204 111.36821 33912 ft 499 kts 217°
2026-05-04 11:29 11.61548 111.32734 33911 ft 498 kts 217°
2026-05-04 11:29 11.55890 111.28649 33913 ft 499 kts 216°
2026-05-04 11:33 11.16096 111.00113 33906 ft 499 kts 216°
2026-05-04 11:33 11.10402 110.96079 33905 ft 499 kts 216°
2026-05-04 11:34 11.04709 110.92043 33901 ft 499 kts 216°
2026-05-04 11:34 10.99011 110.88006 33900 ft 499 kts 216°
2026-05-04 11:35 10.93284 110.84032 33902 ft 498 kts 213°
2026-05-04 11:35 10.87531 110.80094 33899 ft 499 kts 213°
2026-05-04 11:36 10.81812 110.76101 33903 ft 498 kts 213°
2026-05-04 11:36 10.76122 110.72082 33903 ft 498 kts 214°
2026-05-04 11:37 10.70438 110.68058 33903 ft 498 kts 214°
2026-05-04 11:37 10.64789 110.64064 33903 ft 498 kts 214°
2026-05-04 11:38 10.59105 110.60048 33899 ft 498 kts 213°
2026-05-04 11:38 10.53388 110.56012 33900 ft 501 kts 213°
2026-05-04 11:39 10.47664 110.51972 33900 ft 501 kts 213°
2026-05-04 11:41 10.27619 110.37843 33902 ft 501 kts 213°
2026-05-04 11:41 10.22850 110.34486 33905 ft 502 kts 213°
2026-05-04 11:42 10.17104 110.30443 33900 ft 503 kts 213°
2026-05-04 11:42 10.11362 110.26378 33899 ft 503 kts 213°
2026-05-04 11:43 10.05622 110.22313 33900 ft 503 kts 213°
2026-05-04 11:43 9.99888 110.18260 33900 ft 503 kts 213°
2026-05-04 11:44 9.94142 110.14204 33900 ft 503 kts 213°
2026-05-04 11:44 9.88434 110.10177 33896 ft 504 kts 213°
2026-05-04 11:45 9.82684 110.06123 33895 ft 503 kts 213°
2026-05-04 11:45 9.76935 110.02069 33898 ft 504 kts 213°
2026-05-04 11:46 9.71189 109.98018 33898 ft 503 kts 212°
2026-05-04 11:46 9.65441 109.93968 33896 ft 503 kts 212°
2026-05-04 11:47 9.59696 109.89921 33894 ft 504 kts 212°
2026-05-04 11:47 9.53933 109.85865 33897 ft 505 kts 212°
2026-05-04 11:48 9.48145 109.81802 33896 ft 505 kts 212°
2026-05-04 11:48 9.42370 109.77742 33896 ft 505 kts 212°
2026-05-04 11:49 9.36605 109.73691 33894 ft 504 kts 212°
2026-05-04 11:49 9.30836 109.69642 33894 ft 505 kts 212°
2026-05-04 11:50 9.25066 109.65593 33890 ft 505 kts 212°
2026-05-04 11:50 9.19282 109.61535 33890 ft 506 kts 212°
2026-05-04 11:51 9.13492 109.57475 33890 ft 507 kts 212°
2026-05-04 11:51 9.07741 109.53444 33890 ft 507 kts 212°
2026-05-04 11:52 9.01949 109.49387 33892 ft 506 kts 212°
2026-05-04 11:52 8.96154 109.45329 33890 ft 507 kts 212°
2026-05-04 11:53 8.90373 109.41281 33888 ft 504 kts 211°
2026-05-04 11:53 8.84619 109.37254 33886 ft 502 kts 211°
2026-05-04 11:55 8.61589 109.21233 33884 ft 502 kts 211°
2026-05-04 11:56 8.55841 109.17241 33883 ft 500 kts 211°
2026-05-04 11:56 8.50123 109.13270 33883 ft 498 kts 211°
2026-05-04 11:57 8.44415 109.09308 33881 ft 497 kts 211°
2026-05-04 11:57 8.38721 109.05357 33881 ft 497 kts 211°
2026-05-04 11:58 8.33025 109.01407 33881 ft 497 kts 211°
2026-05-04 11:58 8.27330 108.97458 33879 ft 497 kts 211°
2026-05-04 11:59 8.21669 108.93535 33879 ft 497 kts 211°
2026-05-04 11:59 8.15955 108.89576 33879 ft 498 kts 211°
2026-05-04 12:00 8.10243 108.85620 33880 ft 498 kts 211°
2026-05-04 12:00 8.04525 108.81661 33882 ft 498 kts 211°
2026-05-04 12:01 7.98813 108.77707 33877 ft 498 kts 211°
2026-05-04 12:02 7.78847 108.63900 33875 ft 497 kts 211°
2026-05-04 12:03 7.73143 108.59958 33876 ft 497 kts 211°
2026-05-04 12:03 7.67442 108.56019 33876 ft 497 kts 211°
2026-05-04 12:04 7.61740 108.52081 33871 ft 497 kts 211°
2026-05-04 12:04 7.56041 108.48146 33875 ft 497 kts 211°
2026-05-04 12:05 7.50343 108.44214 33876 ft 496 kts 211°
2026-05-04 12:05 7.44644 108.40282 33875 ft 496 kts 211°
2026-05-04 12:06 7.38954 108.36358 33879 ft 495 kts 212°
2026-05-04 12:06 7.33270 108.32439 33879 ft 495 kts 211°
2026-05-04 12:07 7.27582 108.28519 33877 ft 495 kts 211°
2026-05-04 12:07 7.21931 108.24625 33882 ft 495 kts 212°
2026-05-04 12:08 7.16253 108.20713 33876 ft 494 kts 211°
2026-05-04 12:08 7.10589 108.16812 33874 ft 493 kts 211°
2026-05-04 12:09 7.04929 108.12909 33873 ft 493 kts 211°
2026-05-04 12:09 6.99289 108.08970 33876 ft 493 kts 212°
2026-05-04 12:10 6.93650 108.05025 33876 ft 493 kts 211°
2026-05-04 12:10 6.88013 108.01091 33876 ft 493 kts 212°
2026-05-04 12:11 6.82376 107.97165 33873 ft 492 kts 211°
2026-05-04 12:11 6.76751 107.93249 33874 ft 492 kts 212°
2026-05-04 12:12 6.71130 107.89335 33871 ft 491 kts 212°
2026-05-04 12:12 6.65507 107.85422 33873 ft 491 kts 211°
2026-05-04 12:14 6.43031 107.69791 33876 ft 494 kts 212°
2026-05-04 12:15 6.37380 107.65864 33876 ft 494 kts 212°
2026-05-04 12:15 6.31729 107.61936 33874 ft 494 kts 212°
2026-05-04 12:16 6.26076 107.58010 33876 ft 494 kts 212°
2026-05-04 12:16 6.20425 107.54085 33876 ft 494 kts 212°
2026-05-04 12:17 6.14772 107.50161 33874 ft 493 kts 212°
2026-05-04 12:17 6.09131 107.46246 33879 ft 492 kts 212°
2026-05-04 12:18 6.03537 107.42364 33879 ft 491 kts 212°
2026-05-04 12:18 5.97911 107.38461 33879 ft 491 kts 212°
2026-05-04 12:19 5.92279 107.34556 33877 ft 492 kts 212°
2026-05-04 12:19 5.86644 107.30650 33877 ft 492 kts 212°
2026-05-04 12:20 5.81012 107.26746 33878 ft 492 kts 212°
2026-05-04 12:20 5.75374 107.22839 33877 ft 492 kts 212°
2026-05-04 12:21 5.69742 107.18937 33877 ft 492 kts 212°
2026-05-04 12:21 5.64108 107.15034 33882 ft 492 kts 212°
2026-05-04 12:22 5.58473 107.11132 33880 ft 492 kts 212°
2026-05-04 12:22 5.52841 107.07233 33880 ft 492 kts 212°
2026-05-04 12:23 5.47206 107.03333 33877 ft 492 kts 212°
2026-05-04 12:23 5.41612 106.99462 33877 ft 491 kts 212°
2026-05-04 12:24 5.35989 106.95571 33880 ft 491 kts 212°
2026-05-04 12:24 5.30367 106.91682 33881 ft 491 kts 212°
2026-05-04 12:25 5.24747 106.87795 33880 ft 491 kts 212°
2026-05-04 12:25 5.19127 106.83910 33881 ft 491 kts 212°
2026-05-04 12:26 5.13505 106.80024 33879 ft 491 kts 212°
2026-05-04 12:26 5.07887 106.76142 33878 ft 490 kts 212°
2026-05-04 12:27 5.02276 106.72265 33881 ft 490 kts 212°
2026-05-04 12:27 4.96665 106.68389 33880 ft 490 kts 212°
2026-05-04 12:28 4.91058 106.64517 33882 ft 489 kts 212°
2026-05-04 12:28 4.85449 106.60644 33885 ft 489 kts 212°
2026-05-04 12:29 4.79842 106.56773 33887 ft 489 kts 212°
2026-05-04 12:29 4.74234 106.52902 33880 ft 489 kts 212°
2026-05-04 12:30 4.68627 106.49033 33885 ft 489 kts 212°
2026-05-04 12:30 4.63936 106.45796 33888 ft 489 kts 212°
2026-05-04 12:31 4.58371 106.41957 33882 ft 489 kts 212°
2026-05-04 12:31 4.52771 106.38096 33884 ft 489 kts 212°
2026-05-04 12:32 4.44369 106.32302 33885 ft 488 kts 212°
2026-05-04 12:33 4.38781 106.28450 33885 ft 488 kts 212°
2026-05-04 12:33 4.33196 106.24601 33883 ft 486 kts 212°
2026-05-04 12:34 4.27933 106.20343 33885 ft 490 kts 224°
2026-05-04 12:34 4.23478 106.15182 33888 ft 489 kts 228°
2026-05-04 12:35 4.19196 106.09892 33886 ft 489 kts 229°
2026-05-04 12:35 4.14937 106.04589 33885 ft 488 kts 229°
2026-05-04 12:36 4.10663 105.99302 33815 ft 489 kts 228°
2026-05-04 12:36 4.08488 105.96624 33590 ft 501 kts 228°
2026-05-04 12:36 4.06280 105.93906 33348 ft 505 kts 228°
2026-05-04 12:36 4.04064 105.91176 33091 ft 506 kts 228°
2026-05-04 12:37 4.01844 105.88439 32836 ft 507 kts 229°
2026-05-04 12:37 3.99623 105.85700 32612 ft 507 kts 229°
2026-05-04 12:37 3.97397 105.82955 32365 ft 508 kts 229°
2026-05-04 12:37 3.95164 105.80203 32116 ft 509 kts 229°
2026-05-04 12:38 3.92929 105.77451 31879 ft 510 kts 228°
2026-05-04 12:38 3.90693 105.74696 31645 ft 510 kts 229°
2026-05-04 12:38 3.88455 105.71940 31408 ft 511 kts 229°
2026-05-04 12:38 3.86209 105.69174 31166 ft 512 kts 229°
2026-05-04 12:39 3.83962 105.66407 30941 ft 512 kts 229°
2026-05-04 12:39 3.81719 105.63644 30707 ft 511 kts 229°
2026-05-04 12:39 3.79483 105.60890 30486 ft 508 kts 229°
2026-05-04 12:39 3.77285 105.58184 30262 ft 506 kts 228°
2026-05-04 12:40 3.75036 105.55417 30036 ft 505 kts 228°
2026-05-04 12:40 3.72853 105.52731 29783 ft 503 kts 228°
2026-05-04 12:40 3.70638 105.49966 29518 ft 502 kts 229°
2026-05-04 12:40 3.68493 105.47279 29264 ft 500 kts 229°
2026-05-04 12:41 3.66317 105.44566 29001 ft 499 kts 229°
2026-05-04 12:41 3.64139 105.41862 28746 ft 498 kts 229°
2026-05-04 12:41 3.61965 105.39170 28489 ft 497 kts 229°
2026-05-04 12:41 3.59793 105.36485 28242 ft 495 kts 229°
2026-05-04 12:42 3.57631 105.33816 27989 ft 494 kts 229°
2026-05-04 12:42 3.55471 105.31150 27733 ft 492 kts 229°
2026-05-04 12:42 3.53316 105.28491 27510 ft 491 kts 229°
2026-05-04 12:42 3.51173 105.25846 27264 ft 489 kts 229°
2026-05-04 12:43 3.49029 105.23202 27013 ft 488 kts 229°
2026-05-04 12:43 3.46893 105.20568 26771 ft 486 kts 229°
2026-05-04 12:43 3.44766 105.17945 26538 ft 485 kts 229°
2026-05-04 12:43 3.42643 105.15328 26297 ft 483 kts 229°
2026-05-04 12:44 3.40526 105.12718 26057 ft 482 kts 229°
2026-05-04 12:44 3.38418 105.10119 25837 ft 481 kts 229°
2026-05-04 12:44 3.36311 105.07523 25602 ft 480 kts 229°
2026-05-04 12:44 3.34212 105.04936 25383 ft 478 kts 229°
2026-05-04 12:45 3.32118 105.02355 25155 ft 477 kts 229°
2026-05-04 12:45 3.30028 104.99780 24936 ft 476 kts 229°
2026-05-04 12:45 3.27945 104.97212 24706 ft 475 kts 229°
2026-05-04 12:45 3.25872 104.94659 24489 ft 474 kts 229°
2026-05-04 12:46 3.23792 104.92096 24272 ft 472 kts 229°
2026-05-04 12:46 3.21723 104.89546 24052 ft 471 kts 229°
2026-05-04 12:46 3.19663 104.87008 23837 ft 470 kts 229°
2026-05-04 12:46 3.17606 104.84475 23616 ft 468 kts 229°
2026-05-04 12:47 3.15554 104.81947 23401 ft 467 kts 229°
2026-05-04 12:47 3.13508 104.79427 23133 ft 466 kts 229°
2026-05-04 12:47 3.11472 104.76919 22868 ft 464 kts 229°
2026-05-04 12:47 3.09440 104.74416 22628 ft 462 kts 229°
2026-05-04 12:48 3.07419 104.71928 22384 ft 461 kts 229°
2026-05-04 12:48 3.05398 104.69439 22129 ft 459 kts 229°
2026-05-04 12:48 3.03388 104.66966 21876 ft 458 kts 229°
2026-05-04 12:48 3.01281 104.64592 21639 ft 455 kts 224°
2026-05-04 12:49 2.99124 104.62337 21390 ft 454 kts 224°
2026-05-04 12:49 2.96945 104.60058 21142 ft 453 kts 224°
2026-05-04 12:49 2.94781 104.57776 20913 ft 451 kts 224°
2026-05-04 12:49 2.92630 104.55495 20671 ft 450 kts 224°
2026-05-04 12:50 2.90487 104.53215 20443 ft 449 kts 224°
2026-05-04 12:50 2.88351 104.50937 20207 ft 448 kts 224°
2026-05-04 12:50 2.86233 104.48675 19984 ft 446 kts 224°
2026-05-04 12:50 2.84110 104.46408 19743 ft 445 kts 224°
2026-05-04 12:51 2.82242 104.44413 19543 ft 444 kts 224°
2026-05-04 12:51 2.81258 104.43361 19433 ft 443 kts 224°
2026-05-04 12:51 2.79325 104.41296 19213 ft 442 kts 224°
2026-05-04 12:51 2.77225 104.39053 19014 ft 441 kts 224°
2026-05-04 12:52 2.75133 104.36818 18783 ft 440 kts 224°
2026-05-04 12:52 2.73047 104.34589 18558 ft 438 kts 224°
2026-05-04 12:52 2.70967 104.32366 18345 ft 437 kts 224°
2026-05-04 12:52 2.68890 104.30148 18112 ft 436 kts 224°
2026-05-04 12:53 2.66819 104.27936 17861 ft 434 kts 224°
2026-05-04 12:53 2.64777 104.25753 17710 ft 422 kts 224°
2026-05-04 12:53 2.62815 104.23656 17554 ft 404 kts 224°
2026-05-04 12:53 2.60933 104.21649 17441 ft 387 kts 224°
2026-05-04 12:54 2.59130 104.19727 17296 ft 371 kts 224°
2026-05-04 12:54 2.57403 104.17885 17170 ft 356 kts 224°
2026-05-04 12:54 2.55742 104.16110 17033 ft 342 kts 224°
2026-05-04 12:54 2.54123 104.14379 16864 ft 341 kts 223°
2026-05-04 12:55 2.52504 104.12652 16636 ft 340 kts 224°
2026-05-04 12:55 2.50890 104.10930 16406 ft 339 kts 224°
2026-05-04 12:55 2.49202 104.09305 16171 ft 336 kts 212°
2026-05-04 12:55 2.47061 104.08525 15821 ft 330 kts 183°
2026-05-04 12:56 2.44678 104.08671 15703 ft 358 kts 173°
2026-05-04 12:56 2.42170 104.08740 15407 ft 359 kts 176°
2026-05-04 12:56 2.39659 104.08873 14569 ft 365 kts 175°
2026-05-04 12:56 2.37088 104.09017 13646 ft 374 kts 176°
2026-05-04 12:57 2.34459 104.09145 12604 ft 382 kts 176°
2026-05-04 12:57 2.31794 104.09260 11768 ft 383 kts 177°
2026-05-04 12:57 2.29137 104.09372 11037 ft 381 kts 177°
2026-05-04 12:57 2.26529 104.09473 10335 ft 379 kts 177°
2026-05-04 12:58 2.23909 104.09571 9660 ft 376 kts 178°
2026-05-04 12:58 2.21332 104.09666 9264 ft 363 kts 178°
2026-05-04 12:58 2.18861 104.09757 8980 ft 348 kts 178°
2026-05-04 12:58 2.16506 104.09844 8863 ft 328 kts 178°
2026-05-04 12:59 2.14278 104.09926 8684 ft 314 kts 178°
2026-05-04 12:59 2.12141 104.10005 8469 ft 301 kts 178°
2026-05-04 12:59 2.10085 104.10081 8284 ft 290 kts 178°
2026-05-04 12:59 2.08110 104.10154 8113 ft 278 kts 178°
2026-05-04 13:00 2.06215 104.10225 7950 ft 267 kts 178°
2026-05-04 13:00 2.04380 104.10293 7728 ft 261 kts 178°
2026-05-04 13:00 2.02584 104.10359 7441 ft 257 kts 178°
2026-05-04 13:00 2.00805 104.10426 7142 ft 255 kts 178°
2026-05-04 13:01 1.99034 104.10491 7042 ft 255 kts 178°
2026-05-04 13:01 1.97260 104.10522 7031 ft 255 kts 180°
2026-05-04 13:01 1.95488 104.10520 7032 ft 255 kts 180°
2026-05-04 13:01 1.93717 104.10515 7030 ft 254 kts 180°
2026-05-04 13:02 1.91949 104.10509 7032 ft 254 kts 180°
2026-05-04 13:02 1.90177 104.10502 7031 ft 254 kts 180°
2026-05-04 13:02 1.88408 104.10497 7032 ft 255 kts 180°
2026-05-04 13:02 1.86637 104.10491 7030 ft 254 kts 180°
2026-05-04 13:03 1.84864 104.10486 7029 ft 254 kts 180°
2026-05-04 13:03 1.83095 104.10480 7031 ft 254 kts 180°
2026-05-04 13:03 1.81329 104.10474 7032 ft 253 kts 180°
2026-05-04 13:03 1.79569 104.10469 7031 ft 253 kts 180°
2026-05-04 13:04 1.77810 104.10464 7034 ft 253 kts 180°
2026-05-04 13:04 1.76048 104.10459 7029 ft 253 kts 180°
2026-05-04 13:04 1.74280 104.10453 7029 ft 254 kts 180°
2026-05-04 13:04 1.72519 104.10448 7028 ft 253 kts 180°
2026-05-04 13:05 1.70754 104.10442 7029 ft 254 kts 180°
2026-05-04 13:05 1.68986 104.10436 7030 ft 254 kts 180°
2026-05-04 13:05 1.67222 104.10431 7029 ft 254 kts 180°
2026-05-04 13:05 1.65457 104.10426 7029 ft 253 kts 180°
2026-05-04 13:06 1.63694 104.10421 7029 ft 254 kts 180°
2026-05-04 13:06 1.61931 104.10415 7029 ft 253 kts 180°
2026-05-04 13:06 1.60168 104.10409 7029 ft 253 kts 180°
2026-05-04 13:06 1.58408 104.10404 7029 ft 253 kts 180°
2026-05-04 13:07 1.56649 104.10398 7029 ft 253 kts 180°
2026-05-04 13:07 1.54888 104.10392 7030 ft 254 kts 180°
2026-05-04 13:07 1.53124 104.10386 7028 ft 253 kts 180°
2026-05-04 13:07 1.51385 104.10381 7029 ft 253 kts 180°
2026-05-04 13:08 1.49619 104.10375 7027 ft 254 kts 180°
2026-05-04 13:08 1.47850 104.10370 7025 ft 254 kts 181°
2026-05-04 13:08 1.46092 104.10377 7026 ft 252 kts 180°
2026-05-04 13:08 1.44342 104.10388 7026 ft 251 kts 180°
2026-05-04 13:09 1.42595 104.10402 7026 ft 251 kts 180°
2026-05-04 13:09 1.40846 104.10414 7026 ft 251 kts 180°
2026-05-04 13:09 1.39100 104.10403 7020 ft 251 kts 178°
2026-05-04 13:09 1.37435 104.10897 7027 ft 252 kts 149°
2026-05-04 13:10 1.35982 104.11867 7015 ft 252 kts 150°
2026-05-04 13:10 1.34311 104.12326 7021 ft 250 kts 180°
2026-05-04 13:10 1.32619 104.12051 6759 ft 246 kts 197°
2026-05-04 13:10 1.30987 104.11520 6402 ft 247 kts 199°
2026-05-04 13:11 1.29366 104.10952 6047 ft 246 kts 200°
2026-05-04 13:11 1.27752 104.10385 5699 ft 245 kts 200°
2026-05-04 13:11 1.26145 104.09821 5370 ft 244 kts 200°
2026-05-04 13:11 1.24551 104.09243 5031 ft 243 kts 203°
2026-05-04 13:12 1.23182 104.08288 4681 ft 240 kts 225°
2026-05-04 13:12 1.22054 104.07066 4362 ft 239 kts 230°
2026-05-04 13:12 1.20972 104.05811 4015 ft 238 kts 230°
2026-05-04 13:12 1.19903 104.04559 3674 ft 236 kts 230°
2026-05-04 13:13 1.18839 104.03312 3363 ft 235 kts 230°
2026-05-04 13:13 1.17782 104.02071 3034 ft 234 kts 230°
2026-05-04 13:13 1.16733 104.00834 2702 ft 233 kts 230°
2026-05-04 13:13 1.15694 103.99605 2547 ft 232 kts 230°
2026-05-04 13:14 1.14653 103.98369 2517 ft 233 kts 230°
2026-05-04 13:14 1.13612 103.97134 2521 ft 232 kts 230°
2026-05-04 13:14 1.12574 103.95901 2520 ft 232 kts 230°
2026-05-04 13:14 1.11765 103.94526 2533 ft 231 kts 254°
2026-05-04 13:15 1.11755 103.92944 2535 ft 230 kts 286°
2026-05-04 13:15 1.12583 103.91597 2539 ft 231 kts 317°
2026-05-04 13:15 1.13996 103.90857 2539 ft 232 kts 344°
2026-05-04 13:15 1.15571 103.90521 2536 ft 231 kts 349°
2026-05-04 13:16 1.17178 103.90397 2540 ft 234 kts
2026-05-04 13:16 1.18743 103.90819 2544 ft 234 kts 23°
2026-05-04 13:16 1.20215 103.91522 2543 ft 235 kts 25°
2026-05-04 13:16 1.21712 103.92176 2543 ft 235 kts 22°
2026-05-04 13:17 1.23221 103.92802 2424 ft 234 kts 22°
2026-05-04 13:17 1.24214 103.93215 2243 ft 231 kts 22°
2026-05-04 13:17 1.25650 103.93822 1926 ft 216 kts 23°
2026-05-04 13:17 1.26956 103.94378 1663 ft 192 kts 23°
2026-05-04 13:18 1.28118 103.94871 1437 ft 175 kts 23°
2026-05-04 13:18 1.29189 103.95325 1179 ft 160 kts 23°
2026-05-04 13:18 1.30167 103.95741 977 ft 147 kts 23°
2026-05-04 13:18 1.31124 103.96147 816 ft 153 kts 23°
2026-05-04 13:19 1.32114 103.96572 637 ft 156 kts 23°
2026-05-04 13:19 1.33103 103.97000 399 ft 155 kts 21°
2026-05-04 13:19 1.34092 103.97411 246 ft 155 kts 21°
2026-05-04 13:19 1.35085 103.97824 61 ft 153 kts 22°
2026-05-04 13:20 1.35989 103.98203 34 ft 120 kts 24°
2026-05-04 13:20 1.36521 103.98431 37 ft 63 kts 26°
2026-05-04 13:20 1.36755 103.98640 34 ft 5 kts 83°
2026-05-04 13:20 1.36743 103.98659 34 ft 11 kts 124°
2026-05-04 13:21 1.36665 103.98681 33 ft 12 kts 192°
2026-05-04 13:21 1.36581 103.98651 33 ft 14 kts 202°
2026-05-04 13:21 1.36536 103.98633 33 ft 0 kts 202°
2026-05-04 13:22 1.36425 103.98586 33 ft 35 kts 203°
2026-05-04 13:22 1.36235 103.98505 33 ft 30 kts 203°
2026-05-04 13:22 1.36034 103.98420 33 ft 32 kts 203°
2026-05-04 13:23 1.35819 103.98329 33 ft 35 kts 203°
2026-05-04 13:23 1.35592 103.98233 33 ft 36 kts 203°
2026-05-04 13:23 1.35357 103.98134 33 ft 37 kts 203°
2026-05-04 13:23 1.35120 103.98033 34 ft 34 kts 202°
2026-05-04 13:24 1.34918 103.97949 33 ft 26 kts 202°
2026-05-04 13:24 1.34835 103.97944 32 ft 7 kts 133°
2026-05-04 13:24 1.34797 103.98019 31 ft 15 kts 114°
2026-05-04 13:25 1.34694 103.98260 31 ft 25 kts 113°
2026-05-04 13:25 1.34622 103.98428 31 ft 28 kts 113°
2026-05-04 13:25 1.34580 103.98526 31 ft 0 kts 113°
2026-05-04 13:25 1.34554 103.98585 31 ft 27 kts 113°
2026-05-04 13:26 1.34439 103.98663 31 ft 21 kts 205°
2026-05-04 13:26 1.34344 103.98586 31 ft 11 kts 259°
2026-05-04 13:26 1.34363 103.98537 31 ft 10 kts 298°
2026-05-04 13:26 1.34359 103.98459 29 ft 12 kts 223°
2026-05-04 13:27 1.34307 103.98437 31 ft 0 kts 202°